International Virtual Aviation Organisation

Russian Federation and Kazakhstan MCD

 

Карточка аэропорта ULLI

Внимание!
Информация на этой странице в стадии наполнения.
Если вы не увидели какой-то информации, или заметили неточность - пожалуйста сообщите нам!
Спасибо!
Команда RU-STAFF
Название аэропортаПулково
Название аэропорта (англ.)Pulkovo
Превышение79 ft. (24.1 m.)
Координаты59°48.018', 30°15.75'
Высота перехода3500ft
Эшелон переходаQNH>=747mm:FL50; QNH<747=>720:FL60; QNH<720:FL70
Коды ответчика0701-0777, 5701-5727
Зона ОрВДСанкт-Петербург РПИ (ULLL)
Данные METARULLI 181900Z 31004MPS 290V350 CAVOK 07/01 Q1006 R28L/090060 NOSIG
Проноз погоды (TAF)ULLI 181658Z 1818/1918 34003MPS 9999 SCT011 BKN025 TEMPO 1818/1820 01005G10MPS 3100 -SHRA BKN011 BKN020CB TEMPO 1820/1906 3100 MIFG BR BKN011 BKN030 TEMPO 1906/1918 4000 -SHRA BKN011 BKN020CB
NOTAMshow/hide NOTAM
AWOS   TABLE

Информация о ВПП

ВПП Длина ВПП (м.) Покрытие Курс ВПП Частота ILS
10L3397Цементобетон96110.5
28R3397Цементобетон276111.3
10R3780Цементобетон96111.9
28L3780Цементобетон276108.9

Диспетчерские позиции

Позывной Наименование органа УВД Частота
ULLI_GNDПулково-Руление121.7
ULLI_TWRПулково-Вышка118.1
ULLI_APPПетербург-Подход119.3
ULLI_R_APPПулково-Круг120.3
ULLI_DELПулково-Деливери121.9



Спутниковое изображение